McComb, MS

3:33 AM CDT on June 24, 2017 (GMT -0500)
McComb-Pike County-Lewis

Weather History for KMCB - September, 2013

Change the Weather History Date:

Thursday, September 26, 2013

  Actual Average Record
Temperature  
Mean Temperature 74 °F -  
Max Temperature 87 °F 84 °F 95 °F (1955)
Min Temperature 62 °F 61 °F 43 °F (1975)
Cooling Degree Days 10    
Growing Degree Days 24 (Base 50)    
Moisture  
Dew Point 62 °F    
Average Humidity 71    
Maximum Humidity 93    
Minimum Humidity 40    
Precipitation  
Precipitation 0.00 in - - ()
Sea Level Pressure  
Sea Level Pressure 29.90 in    
Wind  
Wind Speed 1 mph (NE)    
Max Wind Speed 8 mph    
Max Gust Speed 18 mph    
Visibility 10 miles    
Events      
Averages and records for this station are not official NWS values.
T = Trace of Precipitation, MM = Missing Value Source: NWS Daily Summary

Daily Weather History Graph

Daily Weather History Graph

Search for Another Location

Airport or City:

Trip Planner

Search our weather history database for the weather conditions in past years. The results will help you decide how hot, cold, wet, or windy it might be!

Date:

Astronomy

Sep. 26, 2013 Rise Set
Actual Time 6:52 AM CDT 6:52 PM CDT
Civil Twilight 6:28 AM CDT 7:17 PM CDT
Nautical Twilight 6:00 AM CDT 7:45 PM CDT
Astronomical Twilight 5:32 AM CDT 8:13 PM CDT
Moon No Moon Rise 1:25 PM CDT (9/26)
Length of Visible Light 12h 48m
Length of Day
12h 00m
Waning Gibbous, 54% of the Moon is Illuminated
Sep 26
Waning Gibbous
Sep 26
Last Quarter
Oct 4
New
Oct 11
First Quarter
Oct 18
Full

Hourly Weather History & Observations

Time (CDT) Temp. Heat Index Dew Point Humidity Pressure Visibility Wind Dir Wind Speed Gust Speed Precip Events Conditions
12:53 AM 64.9 °F - 62.1 °F 90% 29.83 in 10.0 mi Calm Calm - N/A   Clear
1:53 AM 64.0 °F - 62.1 °F 93% 29.83 in 10.0 mi Calm Calm - N/A   Clear
2:53 AM 63.0 °F - 61.0 °F 93% 29.83 in 10.0 mi Calm Calm - N/A   Clear
3:53 AM 62.1 °F - 60.1 °F 93% 29.84 in 10.0 mi Calm Calm - N/A   Clear
4:53 AM 63.0 °F - 60.1 °F 90% 29.86 in 10.0 mi Calm Calm - N/A   Clear
5:53 AM 62.1 °F - 60.1 °F 93% 29.86 in 10.0 mi Calm Calm - N/A   Clear
6:53 AM 62.1 °F - 60.1 °F 93% 29.89 in 10.0 mi Calm Calm - N/A   Clear
7:53 AM 64.9 °F - 62.1 °F 90% 29.91 in 10.0 mi Calm Calm - N/A   Clear
8:53 AM 75.0 °F - 66.0 °F 73% 29.93 in 10.0 mi Calm Calm - N/A   Clear
9:53 AM 79.0 °F - 63.0 °F 58% 29.94 in 10.0 mi Calm Calm - N/A   Clear
10:53 AM 82.0 °F 83.0 °F 62.1 °F 51% 29.95 in 10.0 mi Variable 3.5 mph - N/A   Clear
11:53 AM 84.0 °F 84.0 °F 60.1 °F 44% 29.95 in 10.0 mi Variable 3.5 mph 18.4 mph N/A   Partly Cloudy
12:53 PM 84.0 °F 84.0 °F 60.1 °F 44% 29.93 in 10.0 mi NNE 8.1 mph - N/A   Scattered Clouds
1:53 PM 84.9 °F 85.0 °F 61.0 °F 44% 29.91 in 10.0 mi NNE 5.8 mph - N/A   Scattered Clouds
2:53 PM 86.0 °F 85.7 °F 60.1 °F 41% 29.89 in 10.0 mi Variable 6.9 mph - N/A   Clear
3:53 PM 86.0 °F 85.4 °F 59.0 °F 40% 29.89 in 10.0 mi NE 3.5 mph - N/A   Clear
4:53 PM 87.1 °F 87.0 °F 61.0 °F 41% 29.88 in 10.0 mi NE 5.8 mph - N/A   Clear
5:53 PM 84.9 °F 85.4 °F 62.1 °F 46% 29.89 in 10.0 mi Calm Calm - N/A   Partly Cloudy
6:53 PM 78.1 °F - 66.0 °F 66% 29.90 in 10.0 mi Calm Calm - N/A   Clear
7:53 PM 72.0 °F - 64.9 °F 78% 29.91 in 10.0 mi Calm Calm - N/A   Clear
8:53 PM 71.1 °F - 64.9 °F 81% 29.93 in 10.0 mi Calm Calm - N/A   Clear
9:53 PM 69.1 °F - 64.9 °F 87% 29.94 in 10.0 mi Calm Calm - N/A   Clear
10:53 PM 68.0 °F - 64.9 °F 90% 29.95 in 10.0 mi Calm Calm - N/A   Clear
11:53 PM 71.1 °F - 64.0 °F 78% 29.94 in 10.0 mi NE 4.6 mph - N/A   Scattered Clouds